Location: Berlin
(52.5171°N, 13.3759°E)
Time: 01:22:38
(UTC+01:00)

Envisat - Visible Passes

Search period start: 24 February 2018 00:00
Search period end: 06 March 2018 00:00
Orbit: 764 x 766 km, 98.2° (Epoch: 23 February)

Date Brightness Start Highest point End Pass type
(mag) Time Alt. Az. Time Alt. Az. Time Alt. Az.
24 Feb 4.0 18:07:08 10° ESE 18:11:20 27° ENE 18:15:33 10° N visible
24 Feb 3.5 19:45:03 10° S 19:50:03 59° W 19:55:06 10° NNW visible
25 Feb 2.9 19:08:13 10° SSE 19:13:17 74° ENE 19:18:24 10° NNW visible
25 Feb 5.4 20:49:15 10° SW 20:52:53 19° W 20:56:32 10° NW visible
26 Feb 3.5 18:32:00 10° SE 18:36:43 40° ENE 18:41:26 10° N visible
26 Feb 4.4 20:11:06 10° SSW 20:15:47 37° W 20:20:30 10° NNW visible
27 Feb 3.2 19:33:49 10° S 19:38:54 71° WSW 19:44:00 10° NNW visible
27 Feb 5.9 21:16:56 10° WSW 21:18:52 12° W 21:20:48 10° WNW visible
28 Feb 3.0 18:57:11 10° SSE 19:02:11 62° ENE 19:07:12 10° N visible
28 Feb 5.2 20:37:35 10° SW 20:41:37 23° W 20:45:41 10° NW visible
01 Mar 3.7 18:21:08 10° SE 18:25:39 33° ENE 18:30:12 10° N visible
01 Mar 4.1 19:59:44 10° S 20:04:34 44° W 20:09:28 10° NNW visible
02 Mar 3.0 19:22:39 10° SSE 19:27:44 86° WSW 19:32:52 10° NNW visible
02 Mar 5.8 21:04:43 10° WSW 21:07:33 15° W 21:10:23 10° NW visible
03 Mar 3.2 18:46:11 10° SE 18:51:05 51° ENE 18:56:01 10° N visible
03 Mar 4.9 20:26:01 10° SSW 20:30:22 28° W 20:34:45 10° NNW visible
04 Mar 3.7 19:48:25 10° S 19:53:23 54° W 19:58:24 10° NNW visible
05 Mar 2.9 19:11:31 10° SSE 19:16:35 80° ENE 19:21:43 10° NNW visible
05 Mar 5.6 20:52:49 10° SW 20:56:15 18° W 20:59:43 10° NW visible
